Precipitable_Water
1.68 1.72 1.62 1.44 0.75 0.49 0.40 0.47 0.54 0.55 0.67 0.96 1.07 1.16 1.13 1.20 1.14 1.00 1.70 1.67 1.71 1.78 1.83 1.76 1.76 1.80 1.81 1.79 1.79 1.79 1.83 1.84 1.86 1.89 1.96 1.99 2.00 1.95 1.96 2.01 2.06 2.14 2.07 2.02 1.82 1.77 1.72 1.71 1.67
1.75 1.68 1.48 1.10 0.52 0.38 0.40 0.50 0.51 0.67 0.85 1.06 1.06 1.11 1.05 1.12 1.43 1.45 1.54 1.67 1.74 1.80 1.87 1.77 1.74 1.75 1.75 1.74 1.74 1.75 1.75 1.78 1.81 1.86 1.93 1.94 1.95 1.93 1.92 2.01 2.03 2.15 2.06 1.94 2.03 1.92 1.80 1.67 1.65
1.73 1.68 1.21 0.73 0.50 0.44 0.44 0.61 0.67 0.81 0.90 0.86 0.93 1.11 1.13 1.11 1.38 1.53 1.72 1.69 1.79 1.80 1.88 1.83 1.72 1.71 1.68 1.67 1.69 1.73 1.74 1.78 1.80 1.83 1.86 1.89 1.93 1.92 1.94 2.01 1.97 2.08 2.11 1.94 2.04 2.09 1.88 1.66 1.72
1.55 1.37 1.03 0.65 0.54 0.59 0.59 0.63 0.79 0.77 0.82 0.85 0.93 0.85 1.13 1.48 1.51 1.66 1.72 1.73 1.75 1.83 1.88 1.77 1.71 1.69 1.69 1.68 1.66 1.68 1.71 1.70 1.72 1.76 1.82 1.84 1.88 1.90 1.96 2.05 1.96 2.01 2.07 2.10 2.11 2.08 2.08 1.86 1.86
1.41 1.01 0.71 0.63 0.59 0.68 0.69 0.75 0.84 0.71 0.71 0.77 0.89 0.78 0.91 1.41 1.61 1.70 1.72 1.70 1.72 1.80 1.85 1.82 1.78 1.74 1.74 1.74 1.70 1.69 1.69 1.70 1.70 1.73 1.77 1.83 1.84 1.84 1.84 1.91 1.94 1.98 2.01 2.05 2.14 2.13 2.11 2.06 1.79
0.97 0.95 0.64 0.56 0.60 0.72 0.76 0.86 0.84 0.75 0.77 0.80 0.83 0.89 0.98 1.41 1.49 1.60 1.68 1.70 1.78 1.77 1.79 1.84 1.83 1.78 1.76 1.75 1.78 1.76 1.73 1.68 1.64 1.65 1.68 1.73 1.73 1.74 1.74 1.77 1.79 1.86 1.95 2.05 2.11 2.20 2.13 2.16 1.91
0.90 0.77 0.60 0.58 0.60 0.66 0.74 0.89 0.83 0.75 0.77 0.74 0.89 0.78 1.06 1.24 1.47 1.63 1.65 1.73 1.74 1.79 1.78 1.78 1.76 1.79 1.76 1.78 1.76 1.75 1.75 1.74 1.66 1.64 1.64 1.68 1.69 1.69 1.66 1.69 1.73 1.82 1.89 1.98 2.09 2.16 2.15 2.13 2.06
0.97 0.83 0.64 0.65 0.60 0.56 0.77 0.84 0.89 0.84 0.75 0.96 1.03 0.75 0.84 1.26 1.48 1.55 1.61 1.66 1.70 1.74 1.76 1.78 1.81 1.78 1.76 1.79 1.78 1.76 1.72 1.72 1.72 1.82 1.64 1.63 1.73 1.80 1.66 1.68 1.68 1.77 1.83 1.89 1.97 2.08 2.17 2.17 2.17
1.07 0.76 0.62 0.59 0.65 0.61 0.79 0.82 0.91 0.95 0.85 0.95 0.96 0.92 1.06 1.33 1.44 1.42 1.43 1.51 1.58 1.63 1.70 1.79 1.80 1.82 1.79 1.79 1.78 1.76 1.76 1.76 1.73 1.88 1.71 1.67 1.76 1.73 1.69 1.66 1.70 1.68 1.71 1.74 1.84 1.94 2.04 2.12 2.18
0.88 0.76 0.55 0.62 0.62 0.68 0.77 0.83 0.86 0.87 0.79 0.89 0.88 1.00 1.15 1.24 1.27 1.22 1.24 1.29 1.42 1.52 1.66 1.78 1.83 1.87 1.91 1.87 1.86 1.81 1.82 1.80 1.82 1.81 1.80 1.81 1.84 1.77 1.76 1.77 1.55 1.59 1.62 1.65 1.67 1.76 1.85 1.92 2.08
0.81 0.66 0.56 0.56 0.65 0.72 0.78 0.83 0.92 0.84 0.75 0.87 0.80 0.90 1.06 1.14 1.18 1.17 1.21 1.30 1.40 1.56 1.68 1.78 1.84 1.87 1.88 1.84 1.87 1.96 1.88 1.95 1.88 1.84 1.86 2.02 1.93 1.88 1.80 1.87 1.77 1.84 1.78 1.79 1.67 1.65 1.69 1.84 1.97
0.65 0.67 0.57 0.57 0.59 0.65 0.76 0.90 0.85 0.90 0.83 1.00 0.97 1.01 1.06 1.08 1.11 1.15 1.20 1.31 1.43 1.59 1.76 1.85 1.94 1.99 2.01 1.94 1.94 2.03 1.99 1.91 1.87 1.89 1.91 1.94 1.90 1.90 2.07 2.09 2.07 2.10 2.16 2.03 1.94 1.73 1.69 1.79 1.83
0.62 0.59 0.53 0.57 0.58 0.65 0.79 0.81 0.86 0.89 1.03 1.04 1.08 1.07 1.04 1.10 1.14 1.21 1.34 1.41 1.48 1.60 1.74 1.82 1.88 1.91 1.99 1.94 2.00 1.97 1.94 1.99 1.93 1.99 2.02 2.00 1.92 1.86 1.91 2.06 2.16 2.19 2.08 2.00 2.08 2.04 1.91 1.81 1.77
0.54 0.50 0.48 0.51 0.54 0.61 0.68 0.76 0.83 0.92 1.10 1.03 1.02 1.10 1.11 1.13 1.19 1.24 1.36 1.41 1.47 1.61 1.74 1.83 1.89 1.90 1.87 1.83 2.00 1.99 2.01 2.03 2.05 1.98 2.12 2.15 2.11 2.08 2.04 2.15 2.12 2.08 2.09 2.08 2.00 2.00 1.97 1.94 1.92
0.54 0.47 0.46 0.46 0.53 0.55 0.67 0.59 0.63 0.93 1.03 1.02 1.00 1.08 1.18 1.22 1.29 1.29 1.40 1.49 1.60 1.68 1.80 1.86 1.91 1.85 1.81 1.87 1.99 1.97 2.09 2.01 2.00 2.00 2.17 2.21 2.27 2.19 2.14 2.11 2.04 2.02 2.03 1.96 1.95 1.93 1.92 1.93 1.92
0.52 0.49 0.43 0.41 0.41 0.56 0.58 0.49 0.55 0.84 0.91 0.94 1.01 1.04 1.15 1.28 1.36 1.43 1.51 1.58 1.69 1.75 1.74 1.89 1.91 1.76 1.79 1.79 1.94 2.03 2.20 2.12 2.08 1.97 2.11 2.14 2.21 2.30 2.22 2.10 1.97 2.01 2.03 2.01 1.97 2.02 2.00 1.92 1.87
0.50 0.45 0.38 0.36 0.35 0.42 0.51 0.51 0.55 0.78 0.82 0.90 0.99 1.02 1.10 1.29 1.40 1.49 1.55 1.61 1.68 1.74 1.77 1.82 1.84 1.71 1.71 1.82 1.86 2.01 2.13 2.10 2.05 1.97 2.02 2.07 2.26 2.21 2.11 1.98 1.98 2.10 2.06 2.10 1.99 1.95 1.91 1.92 1.98
0.46 0.41 0.35 0.28 0.30 0.40 0.44 0.49 0.55 0.67 0.74 0.84 0.98 1.04 1.11 1.25 1.36 1.52 1.59 1.61 1.69 1.79 1.82 1.83 1.78 1.70 1.74 1.77 1.83 2.06 2.08 2.05 2.00 1.97 1.98 2.10 2.17 2.15 2.05 2.10 2.11 2.01 1.83 1.74 1.69 1.62 1.66 1.69 1.71
0.44 0.37 0.33 0.29 0.32 0.36 0.43 0.46 0.52 0.59 0.72 0.79 0.91 0.98 1.08 1.20 1.46 1.57 1.62 1.62 1.65 1.77 1.80 1.80 1.77 1.71 1.78 1.60 1.72 1.96 1.91 1.95 1.88 1.87 2.00 2.03 2.09 2.06 1.93 2.06 2.03 1.84 1.57 1.49 1.49 1.43 1.42 1.46 1.60
0.38 0.35 0.31 0.30 0.33 0.40 0.44 0.47 0.50 0.52 0.64 0.72 0.85 0.92 1.01 1.19 1.39 1.51 1.56 1.55 1.61 1.70 1.77 1.78 1.79 1.73 1.75 1.60 1.61 1.77 1.85 1.85 1.76 1.90 1.96 1.96 2.01 1.94 1.83 1.78 1.65 1.53 1.46 1.46 1.40 1.38 1.41 1.50 1.77
0.36 0.32 0.28 0.29 0.33 0.35 0.34 0.40 0.43 0.50 0.57 0.61 0.71 0.89 1.01 1.16 1.33 1.47 1.50 1.52 1.60 1.65 1.74 1.80 1.81 1.80 1.64 1.53 1.57 1.68 1.71 1.76 1.71 1.71 1.68 1.77 1.80 1.75 1.67 1.58 1.50 1.49 1.43 1.29 1.36 1.48 1.49 1.48 1.81
0.25 0.28 0.28 0.27 0.27 0.28 0.32 0.26 0.34 0.35 0.37 0.50 0.63 0.75 0.92 1.12 1.37 1.49 1.52 1.53 1.54 1.68 1.87 1.93 1.89 1.81 1.60 1.50 1.47 1.52 1.46 1.48 1.68 1.67 1.72 1.68 1.66 1.58 1.51 1.42 1.39 1.35 1.41 1.49 1.66 1.81 1.79 1.83 1.68
0.29 0.29 0.27 0.29 0.28 0.27 0.29 0.24 0.28 0.33 0.42 0.50 0.65 0.72 0.85 1.08 1.27 1.41 1.55 1.60 1.62 1.74 1.81 1.91 1.85 1.77 1.59 1.48 1.48 1.48 1.58 1.67 1.70 1.68 1.60 1.64 1.56 1.43 1.42 1.46 1.60 1.68 1.76 1.85 1.93 1.92 1.83 1.82 1.77
0.33 0.29 0.28 0.26 0.25 0.21 0.27 0.23 0.20 0.35 0.42 0.47 0.63 0.89 0.90 1.05 1.25 1.44 1.60 1.64 1.63 1.72 1.75 1.81 1.71 1.69 1.62 1.49 1.51 1.60 1.65 1.67 1.61 1.62 1.51 1.46 1.43 1.40 1.41 1.53 1.71 1.69 1.71 1.71 1.68 1.77 1.80 1.81 1.87
0.28 0.24 0.20 0.20 0.19 0.18 0.32 0.24 0.24 0.44 0.42 0.49 0.59 0.81 0.99 1.05 1.23 1.38 1.47 1.54 1.57 1.63 1.76 1.72 1.70 1.65 1.61 1.50 1.57 1.72 1.78 1.72 1.64 1.52 1.47 1.40 1.37 1.32 1.28 1.42 1.47 1.51 1.53 1.56 1.61 1.71 1.84 1.85 1.84
0.24 0.25 0.21 0.20 0.19 0.20 0.29 0.22 0.32 0.40 0.46 0.59 0.76 0.80 1.09 1.13 1.26 1.31 1.45 1.56 1.59 1.58 1.77 1.69 1.70 1.65 1.56 1.52 1.60 1.79 1.85 1.76 1.67 1.58 1.51 1.42 1.35 1.28 1.33 1.41 1.46 1.49 1.50 1.51 1.51 1.65 1.77 1.83 1.84
0.30 0.23 0.32 0.27 0.24 0.18 0.25 0.32 0.30 0.39 0.49 0.64 0.78 1.02 1.04 1.10 1.21 1.34 1.51 1.62 1.65 1.71 1.76 1.73 1.74 1.64 1.58 1.57 1.71 1.86 1.91 1.77 1.65 1.57 1.53 1.43 1.38 1.37 1.34 1.40 1.40 1.44 1.41 1.38 1.40 1.41 1.57 1.72 1.71
0.35 0.38 0.26 0.25 0.21 0.20 0.28 0.26 0.30 0.34 0.49 0.64 0.73 0.90 0.99 1.06 1.14 1.32 1.51 1.66 1.74 1.70 1.81 1.80 1.75 1.61 1.58 1.70 1.90 1.95 1.85 1.77 1.67 1.56 1.47 1.36 1.34 1.37 1.37 1.32 1.32 1.32 1.31 1.32 1.31 1.29 1.39 1.53 1.58
0.32 0.29 0.31 0.34 0.31 0.27 0.26 0.29 0.40 0.40 0.54 0.63 0.74 0.84 1.00 1.04 1.14 1.26 1.46 1.63 1.66 1.67 1.77 1.76 1.68 1.66 1.63 1.77 1.94 1.94 1.81 1.80 1.63 1.52 1.42 1.33 1.32 1.32 1.31 1.31 1.28 1.28 1.28 1.32 1.32 1.30 1.33 1.33 1.43
0.39 0.34 0.35 0.28 0.32 0.27 0.30 0.31 0.39 0.45 0.58 0.67 0.73 0.82 0.95 1.06 1.17 1.29 1.38 1.50 1.55 1.59 1.73 1.72 1.72 1.64 1.67 1.75 1.94 1.79 1.83 1.64 1.51 1.43 1.36 1.34 1.31 1.31 1.26 1.28 1.26 1.25 1.25 1.26 1.24 1.24 1.27 1.26 1.27
Wind_Speed
14 13 12 9 11 14 18 16 15 14 12 11 8 6 6 5 5 3 8 8 12 11 11 10 10 9 8 8 8 8 8 8 9 9 8 8 7 7 7 6 6 6 6 7 8 8 9 9 10
11 11 11 10 13 16 16 17 18 16 14 11 11 7 7 4 5 7 11 11 12 11 10 9 9 9 8 8 8 8 8 8 9 8 8 8 7 6 6 6 5 5 6 6 7 8 8 9 9
10 9 8 9 15 15 16 16 15 15 14 11 10 12 10 8 7 9 11 13 11 10 10 9 9 8 8 8 8 8 8 8 8 8 7 7 6 6 5 5 4 4 4 3 6 7 8 8 9
8 8 8 12 14 13 13 14 14 14 14 14 12 14 13 13 9 10 12 12 10 10 9 9 8 8 8 8 8 8 7 7 7 6 6 6 6 5 5 4 4 3 3 4 6 7 8 8 8
6 6 8 11 13 12 11 12 13 15 14 14 12 13 12 11 11 12 12 10 10 9 8 8 8 8 7 7 7 7 6 6 6 6 6 6 5 5 5 4 4 3 3 4 5 5 7 8 8
5 5 8 10 11 10 9 10 12 14 14 14 15 14 13 11 10 10 10 9 8 8 7 7 7 7 7 6 6 6 6 6 6 5 5 5 5 4 4 4 4 4 4 3 5 6 5 9 9
4 5 8 8 9 8 8 8 10 12 12 14 12 12 11 10 10 9 9 8 7 7 6 6 6 6 6 6 6 6 6 6 5 6 5 5 5 4 4 4 4 4 4 4 4 5 6 6 9
2 3 5 5 8 10 8 7 9 9 12 12 11 10 9 10 10 9 8 7 6 5 4 5 5 5 6 6 6 6 6 6 6 6 6 6 5 4 4 4 4 4 4 4 4 5 5 7 9
1 1 3 5 4 8 8 7 9 9 10 10 11 11 12 11 10 9 7 6 5 4 3 3 4 5 5 6 6 7 7 7 7 7 7 7 6 5 4 4 4 4 4 5 5 5 5 6 8
5 4 2 2 2 3 5 5 7 8 9 9 11 12 12 10 9 8 6 5 3 3 2 2 3 4 5 6 7 8 8 8 8 8 8 8 7 6 5 5 6 5 5 5 5 6 6 7 8
4 3 3 4 1 1 4 4 5 7 7 8 8 10 10 9 8 6 5 3 2 1 1 2 3 6 7 7 8 9 9 10 10 10 9 9 8 8 7 7 7 7 6 6 6 7 7 8 8
5 4 2 3 3 2 3 4 3 4 8 8 8 8 8 8 7 6 5 3 2 0 1 2 4 6 7 8 9 10 11 12 12 11 11 10 9 9 9 8 8 8 7 8 8 8 9 9 10
5 3 3 2 1 2 3 3 1 1 4 6 7 6 6 6 6 5 5 4 3 2 1 1 4 3 5 9 10 11 13 15 15 14 13 12 11 10 10 10 10 9 10 10 10 10 10 10 11
4 3 3 3 2 3 3 1 1 1 2 4 4 3 4 4 4 4 4 5 4 2 1 2 4 5 6 8 11 13 12 13 18 17 15 14 14 12 11 10 10 10 10 10 11 11 12 12 13
6 6 5 5 4 3 3 2 3 2 3 4 3 2 2 2 3 2 4 5 4 3 3 3 5 7 9 10 11 13 15 14 14 19 17 16 16 14 12 11 11 11 10 11 11 12 13 13 14
6 7 6 2 5 4 6 2 2 4 5 4 4 2 1 1 2 2 4 5 5 4 4 5 6 9 11 12 12 12 13 13 14 19 16 14 13 14 13 11 10 11 11 11 12 12 13 15 15
9 6 5 3 3 4 7 3 2 4 5 5 5 4 3 3 3 3 4 5 5 4 5 6 8 10 13 14 13 13 12 11 9 15 15 13 12 12 10 11 10 11 12 12 14 15 15 16 17
11 10 6 6 4 7 9 11 4 5 6 6 7 6 5 5 4 4 4 5 5 5 6 7 8 10 13 15 15 10 11 10 9 10 11 11 10 9 9 9 10 10 11 12 13 14 15 16 16
8 9 8 6 4 7 8 9 8 6 6 6 7 9 9 7 5 5 5 6 6 6 7 8 8 10 13 12 15 8 4 11 10 8 8 9 8 7 8 9 10 11 12 13 14 15 15 16 16
12 12 10 7 4 6 4 6 5 6 6 7 8 10 12 10 8 6 6 7 7 7 7 8 8 9 11 10 10 11 5 7 6 6 6 7 7 7 8 9 10 11 12 13 13 13 14 15 15
15 14 10 9 5 6 5 9 7 6 7 8 10 11 12 12 9 7 7 7 7 8 8 8 8 8 8 8 7 5 6 4 5 4 3 3 5 7 8 10 10 11 12 13 13 14 15 14 14
15 14 11 10 10 8 5 6 7 8 9 8 8 8 9 11 9 8 7 6 7 7 7 8 6 6 6 5 5 2 2 3 2 2 2 3 5 7 8 8 9 10 11 11 11 11 12 13 13
9 9 12 11 11 10 10 9 8 7 7 6 5 3 5 7 9 8 8 6 6 6 8 6 5 5 5 5 4 3 2 2 2 2 3 5 6 6 6 6 8 8 8 8 8 9 10 11 12
11 9 9 10 11 14 10 10 11 6 5 6 4 3 3 5 6 7 6 6 6 6 6 4 5 6 6 5 4 4 4 4 4 4 4 5 6 5 4 5 5 5 5 6 8 8 9 9 9
16 13 11 11 12 10 6 9 9 4 7 8 7 4 3 4 5 6 6 7 6 6 6 6 6 7 7 7 6 6 5 4 5 5 5 5 5 5 4 4 4 5 6 6 7 7 7 6 6
18 15 13 9 10 9 6 8 6 5 6 5 4 4 3 3 4 6 7 7 6 6 7 7 8 8 8 8 9 8 7 6 6 6 5 4 4 5 4 3 4 5 6 6 6 5 5 5 5
14 15 10 10 8 11 8 7 8 6 4 2 0 1 2 3 5 6 6 6 6 7 7 8 8 8 9 10 11 11 10 8 6 5 4 4 4 3 3 2 3 4 5 6 5 5 5 4 5
13 14 11 12 10 11 6 8 5 5 4 2 1 2 3 4 5 6 6 6 6 7 8 9 9 9 11 13 14 13 11 9 7 6 4 3 3 3 2 2 2 3 3 5 5 6 6 6 5
15 16 15 9 9 7 7 7 4 4 2 2 2 3 4 5 7 6 6 6 7 7 8 8 8 9 11 14 11 9 9 9 8 6 3 2 1 2 1 1 2 2 2 3 5 5 6 7 7
14 17 18 15 12 13 10 6 5 4 3 3 3 4 5 6 6 7 7 7 7 8 8 7 7 8 9 8 4 4 8 8 7 5 3 1 1 0 1 1 1 2 2 3 4 4 5 6 6
Wind_Direction
91 91 79 70 63 68 62 60 53 51 55 60 52 26 52 44 23 63 134 137 141 140 139 140 140 140 137 135 134 134 136 142 148 151 151 152 151 147 142 138 136 129 126 128 124 123 122 122 125
94 85 69 58 65 65 62 57 56 55 58 61 53 56 53 74 58 102 130 138 140 139 139 138 141 141 139 138 136 134 134 136 141 146 148 150 152 154 154 150 147 151 109 134 135 132 131 128 130
93 76 58 67 62 63 63 58 57 51 50 50 58 55 52 62 104 116 127 137 137 139 140 139 141 141 140 139 137 137 136 137 140 144 149 153 155 158 160 165 165 167 164 130 138 146 141 135 137
86 75 66 65 70 65 63 59 51 47 53 51 63 64 72 75 91 106 126 134 136 139 140 142 142 143 144 143 141 141 142 142 144 150 155 157 160 164 165 165 169 165 173 177 160 151 151 149 145
79 64 78 67 68 68 68 61 50 49 52 49 57 68 73 73 93 110 125 131 135 139 139 145 146 147 150 151 151 151 152 155 157 158 162 166 168 173 177 182 175 175 175 177 181 160 180 167 162
77 62 70 63 66 66 67 64 49 52 56 60 66 71 67 81 98 110 121 130 136 141 143 149 155 156 160 162 166 166 166 166 168 169 171 174 177 181 187 193 197 197 194 187 186 181 175 184 177
64 62 63 67 62 67 65 63 51 56 55 57 64 63 70 84 94 107 120 123 131 138 146 156 165 171 174 179 182 182 182 180 179 180 180 181 183 189 192 195 201 201 200 196 192 195 191 182 183
103 65 84 56 57 68 73 72 56 55 58 67 54 61 76 88 94 102 112 117 127 135 145 164 177 186 192 197 200 198 196 195 194 193 192 190 190 194 197 201 199 202 204 203 200 197 197 204 197
182 262 86 75 69 71 83 77 62 59 71 57 55 60 76 93 95 99 105 111 124 133 144 169 190 202 212 217 218 215 212 208 206 204 204 204 204 201 203 204 204 207 212 214 215 211 209 207 205
220 261 69 71 64 51 87 76 76 70 74 65 67 71 81 88 93 96 102 104 127 147 154 197 224 228 225 232 232 229 226 222 217 214 212 212 214 215 214 216 216 216 219 222 223 223 223 217 212
160 121 127 84 105 91 113 105 89 69 72 67 83 88 85 84 85 84 85 85 109 139 203 250 268 249 242 239 240 239 235 233 230 226 221 220 223 225 223 222 219 223 228 233 233 230 230 226 224
163 142 145 97 93 99 150 121 95 87 61 67 83 91 86 80 79 72 70 62 66 31 243 312 317 271 249 247 249 249 244 239 236 233 229 228 227 230 232 232 234 234 239 240 239 239 237 234 234
191 160 173 168 140 118 130 161 104 124 57 85 91 90 84 78 74 57 47 33 23 352 285 337 357 321 263 263 262 254 253 243 237 235 233 232 232 235 236 240 242 248 248 246 244 244 242 240 239
179 180 190 181 169 170 177 182 222 120 136 115 113 99 83 74 60 43 41 30 17 359 316 293 342 345 323 286 275 259 261 249 238 233 234 236 236 240 238 244 250 251 249 246 246 245 245 244 244
206 222 198 201 202 204 223 239 244 172 172 161 158 154 91 53 38 42 24 8 4 4 341 309 311 327 329 310 292 271 256 253 247 232 237 240 241 240 251 247 251 252 251 249 250 251 249 250 249
216 222 219 185 234 211 234 252 219 183 197 200 199 208 237 325 331 350 352 353 352 352 339 332 329 325 327 325 308 280 257 251 256 226 234 244 249 240 243 247 252 250 252 254 252 259 256 254 254
215 232 235 230 249 239 224 259 321 220 224 221 222 227 248 274 291 310 326 342 350 338 333 327 327 330 334 330 319 292 249 243 239 224 227 235 248 243 240 243 251 256 258 260 262 264 262 257 262
219 233 228 248 244 246 240 249 258 237 234 231 229 235 245 259 269 289 309 324 330 331 330 327 325 335 337 337 334 314 232 227 219 207 221 234 241 242 240 245 255 259 262 266 266 267 266 263 266
222 240 248 246 245 267 246 248 248 228 247 238 239 243 247 254 262 281 293 308 314 318 324 329 325 334 341 345 356 356 236 206 201 212 228 225 232 240 269 246 259 265 270 271 272 270 267 266 264
231 240 235 231 257 238 237 236 237 248 256 263 258 254 247 245 251 269 285 299 302 310 313 322 326 336 345 352 7 37 103 158 188 204 204 228 235 254 265 264 269 271 274 276 273 271 270 270 265
236 239 223 242 233 238 256 242 237 244 265 281 281 265 249 240 241 257 276 289 296 301 305 315 316 331 347 1 8 43 81 134 165 168 189 227 256 272 276 276 277 278 279 279 275 273 271 270 264
228 221 228 235 245 249 253 275 241 262 272 286 296 272 248 231 237 249 268 284 293 299 307 309 307 322 341 353 6 30 96 122 151 189 226 283 293 289 286 285 284 285 284 283 281 279 273 269 265
221 216 227 235 246 261 243 264 264 267 258 293 316 286 244 230 232 248 262 278 295 308 310 300 292 310 319 325 338 346 271 249 258 248 276 308 310 307 299 299 299 295 291 289 289 287 283 277 270
207 209 218 237 252 254 255 269 276 248 276 282 320 302 251 232 236 255 259 268 284 303 323 304 289 298 298 304 295 293 297 271 256 279 297 310 317 318 316 323 326 321 314 309 304 299 295 289 278
217 218 239 243 237 259 247 261 262 269 274 286 295 282 246 243 250 254 256 261 274 292 309 307 290 293 290 281 280 281 275 286 265 270 295 307 317 321 314 324 336 344 336 326 321 317 310 307 296
219 230 248 252 256 252 243 258 249 271 289 285 283 237 220 250 263 263 259 259 270 287 299 303 297 288 288 278 276 274 264 275 278 259 279 301 316 320 310 302 325 343 349 348 343 340 333 332 329
213 226 249 252 251 264 244 248 259 260 259 239 293 188 226 262 284 279 262 261 274 288 295 302 301 292 289 285 277 263 252 254 258 245 255 289 311 321 328 305 321 342 358 6 12 11 11 7 360
232 216 228 238 248 257 233 256 251 239 220 208 228 231 243 274 288 281 263 264 274 295 300 303 304 301 297 294 282 258 237 230 234 223 237 271 309 332 334 334 336 347 9 25 29 27 28 29 21
221 227 237 254 252 266 250 237 219 252 230 208 232 256 267 281 286 271 268 267 283 294 301 302 307 311 313 308 282 221 219 229 207 200 216 256 308 339 354 7 14 19 33 29 28 31 34 37 33
235 237 232 238 231 245 268 267 235 228 219 243 252 264 281 286 283 268 269 267 286 299 300 304 311 321 326 344 149 190 172 168 172 183 197 229 259 349 6 16 16 16 19 16 26 28 29 33 31